Time,TemperatureF,DewpointF,PressureIn,WindDirection,WindDirectionDegrees,WindSpeedMPH,WindSpeedGustMPH,Humidity,HourlyPrecipIn,Conditions,Clouds,dailyrainin,SoftwareType,DateUTC
2013-03-08 00:03:00,36.5,34.0,29.88,WNW,300,0.0,1.0,91,0.00,,,0.00,weatherlink.com 1.10,2013-03-08 08:03:00,
2013-03-08 00:18:00,36.0,34.0,29.88,WNW,300,0.0,0.0,92,0.00,,,0.00,weatherlink.com 1.10,2013-03-08 08:18:00,
2013-03-08 00:33:00,36.8,35.0,29.88,WNW,300,0.0,1.0,93,0.00,,,0.00,weatherlink.com 1.10,2013-03-08 08:33:00,
2013-03-08 00:48:00,36.1,34.0,29.88,WNW,299,0.0,0.0,92,0.00,,,0.00,weatherlink.com 1.10,2013-03-08 08:48:00,
2013-03-08 01:03:00,36.0,34.0,29.88,WNW,300,0.0,1.0,92,0.00,,,0.00,weatherlink.com 1.10,2013-03-08 09:03:00,
2013-03-08 01:18:00,35.3,33.0,29.88,WNW,299,0.0,1.0,92,0.00,,,0.00,weatherlink.com 1.10,2013-03-08 09:18:00,
2013-03-08 01:33:00,35.8,34.0,29.88,WNW,299,0.0,1.0,93,0.00,,,0.00,weatherlink.com 1.10,2013-03-08 09:33:00,
2013-03-08 01:48:00,35.2,33.0,29.88,WNW,300,1.0,2.0,92,0.00,,,0.00,weatherlink.com 1.10,2013-03-08 09:48:00,
2013-03-08 02:03:00,34.9,33.0,29.87,WNW,299,1.0,1.0,93,0.00,,,0.00,weatherlink.com 1.10,2013-03-08 10:03:00,
2013-03-08 02:18:00,35.0,33.0,29.87,WNW,300,0.0,2.0,93,0.00,,,0.00,weatherlink.com 1.10,2013-03-08 10:18:00,
2013-03-08 02:33:00,35.0,33.0,29.87,WNW,299,0.0,0.0,93,0.00,,,0.00,weatherlink.com 1.10,2013-03-08 10:33:00,
2013-03-08 02:48:00,34.7,33.0,29.87,WNW,300,1.0,1.0,93,0.00,,,0.00,weatherlink.com 1.10,2013-03-08 10:48:00,
2013-03-08 03:03:00,35.0,33.0,29.87,WSW,250,0.0,1.0,93,0.00,,,0.00,weatherlink.com 1.10,2013-03-08 11:03:00,
2013-03-08 03:18:00,34.5,33.0,29.86,WSW,250,1.0,2.0,93,0.00,,,0.00,weatherlink.com 1.10,2013-03-08 11:18:00,
2013-03-08 03:33:00,33.5,32.0,29.86,WSW,251,0.0,1.0,92,0.00,,,0.00,weatherlink.com 1.10,2013-03-08 11:33:00,
2013-03-08 03:48:00,33.3,32.0,29.86,WSW,251,0.0,0.0,93,0.00,,,0.00,weatherlink.com 1.10,2013-03-08 11:48:00,
2013-03-08 04:03:00,33.0,31.0,29.86,WSW,251,0.0,0.0,93,0.00,,,0.00,weatherlink.com 1.10,2013-03-08 12:03:00,
2013-03-08 04:18:00,32.7,31.0,29.86,WSW,251,0.0,0.0,93,0.00,,,0.00,weatherlink.com 1.10,2013-03-08 12:18:00,
2013-03-08 04:33:00,32.3,31.0,29.86,WSW,251,0.0,2.0,93,0.00,,,0.00,weatherlink.com 1.10,2013-03-08 12:33:00,
2013-03-08 04:48:00,32.1,30.0,29.86,WSW,251,1.0,1.0,93,0.00,,,0.00,weatherlink.com 1.10,2013-03-08 12:48:00,
2013-03-08 05:03:00,32.4,31.0,29.87,WSW,251,0.0,0.0,93,0.00,,,0.00,weatherlink.com 1.10,2013-03-08 13:03:00,
2013-03-08 05:18:00,32.1,30.0,29.87,WSW,251,0.0,1.0,93,0.00,,,0.00,weatherlink.com 1.10,2013-03-08 13:18:00,
2013-03-08 05:33:00,31.3,30.0,29.87,WSW,251,0.0,3.0,93,0.00,,,0.00,weatherlink.com 1.10,2013-03-08 13:33:00,
2013-03-08 05:48:00,30.8,29.0,29.87,WSW,251,0.0,0.0,93,0.00,,,0.00,weatherlink.com 1.10,2013-03-08 13:48:00,
2013-03-08 06:03:00,31.6,30.0,29.87,WSW,251,0.0,2.0,93,0.00,,,0.00,weatherlink.com 1.10,2013-03-08 14:03:00,
2013-03-08 06:18:00,31.1,29.0,29.87,WSW,251,0.0,0.0,93,0.00,,,0.00,weatherlink.com 1.10,2013-03-08 14:18:00,
2013-03-08 06:33:00,30.5,29.0,29.87,WSW,251,0.0,2.0,93,0.00,,,0.00,weatherlink.com 1.10,2013-03-08 14:33:00,
2013-03-08 06:48:00,30.0,28.0,29.87,WSW,251,2.0,3.0,93,0.00,,,0.00,weatherlink.com 1.10,2013-03-08 14:48:00,
2013-03-08 07:03:00,30.2,29.0,29.87,WSW,251,0.0,2.0,93,0.00,,,0.00,weatherlink.com 1.10,2013-03-08 15:03:00,
2013-03-08 07:18:00,31.1,29.0,29.88,WSW,251,0.0,0.0,93,0.00,,,0.00,weatherlink.com 1.10,2013-03-08 15:18:00,
2013-03-08 07:33:00,32.7,31.0,29.88,WSW,251,0.0,1.0,94,0.00,,,0.00,weatherlink.com 1.10,2013-03-08 15:33:00,
2013-03-08 07:48:00,33.9,32.0,29.89,WSW,251,0.0,1.0,94,0.00,,,0.00,weatherlink.com 1.10,2013-03-08 15:48:00,
2013-03-08 08:04:00,36.4,35.0,29.89,WSW,251,0.0,1.0,94,0.00,,,0.00,weatherlink.com 1.10,2013-03-08 16:04:00,
2013-03-08 08:19:00,38.3,37.0,29.89,WSW,251,0.0,2.0,94,0.00,,,0.00,weatherlink.com 1.10,2013-03-08 16:19:00,
2013-03-08 08:34:00,41.1,40.0,29.89,WSW,251,0.0,1.0,94,0.00,,,0.00,weatherlink.com 1.10,2013-03-08 16:34:00,
2013-03-08 08:49:00,43.4,41.0,29.90,South,170,2.0,3.0,90,0.01,,,0.01,weatherlink.com 1.10,2013-03-08 16:49:00,
2013-03-08 09:04:00,45.2,40.0,29.90,South,173,3.0,5.0,81,0.01,,,0.01,weatherlink.com 1.10,2013-03-08 17:04:00,
2013-03-08 09:19:00,46.7,41.0,29.90,SSE,153,0.0,4.0,79,0.01,,,0.01,weatherlink.com 1.10,2013-03-08 17:19:00,
2013-03-08 09:34:00,48.4,41.0,29.90,South,178,2.0,4.0,76,0.01,,,0.01,weatherlink.com 1.10,2013-03-08 17:34:00,
2013-03-08 09:49:00,49.7,42.0,29.90,WSW,255,0.0,3.0,75,0.00,,,0.01,weatherlink.com 1.10,2013-03-08 17:49:00,
2013-03-08 10:04:00,51.7,42.0,29.90,SE,129,0.0,3.0,70,0.00,,,0.01,weatherlink.com 1.10,2013-03-08 18:04:00,
2013-03-08 10:19:00,53.0,42.0,29.90,WNW,283,1.0,3.0,66,0.00,,,0.01,weatherlink.com 1.10,2013-03-08 18:19:00,
2013-03-08 10:34:00,54.1,40.0,29.89,NNE,23,1.0,4.0,60,0.00,,,0.01,weatherlink.com 1.10,2013-03-08 18:34:00,
2013-03-08 10:49:00,54.9,41.0,29.89,WSW,246,3.0,6.0,61,0.00,,,0.01,weatherlink.com 1.10,2013-03-08 18:49:00,
2013-03-08 11:04:00,55.7,41.0,29.89,SE,134,2.0,5.0,58,0.00,,,0.01,weatherlink.com 1.10,2013-03-08 19:04:00,
2013-03-08 11:19:00,56.6,41.0,29.89,NNW,330,2.0,7.0,56,0.00,,,0.01,weatherlink.com 1.10,2013-03-08 19:19:00,
2013-03-08 11:34:00,58.1,41.0,29.88,NW,317,6.0,6.0,54,0.00,,,0.01,weatherlink.com 1.10,2013-03-08 19:34:00,
2013-03-08 11:49:00,58.4,41.0,29.88,WNW,296,2.0,6.0,52,0.00,,,0.01,weatherlink.com 1.10,2013-03-08 19:49:00,
2013-03-08 12:05:00,59.2,40.0,29.88,West,275,2.0,8.0,49,0.00,,,0.01,weatherlink.com 1.10,2013-03-08 20:05:00,
2013-03-08 12:20:00,60.2,39.0,29.87,WNW,296,6.0,10.0,45,0.00,,,0.01,weatherlink.com 1.10,2013-03-08 20:20:00,
2013-03-08 12:35:00,60.3,39.0,29.87,WSW,252,2.0,9.0,45,0.00,,,0.01,weatherlink.com 1.10,2013-03-08 20:35:00,
2013-03-08 12:50:00,61.0,38.0,29.86,NNW,332,5.0,13.0,43,0.00,,,0.01,weatherlink.com 1.10,2013-03-08 20:50:00,
2013-03-08 13:05:00,61.6,39.0,29.86,WNW,290,4.0,9.0,43,0.00,,,0.01,weatherlink.com 1.10,2013-03-08 21:05:00,
2013-03-08 13:20:00,62.1,36.0,29.85,NNW,330,4.0,13.0,38,0.00,,,0.01,weatherlink.com 1.10,2013-03-08 21:20:00,
2013-03-08 13:35:00,62.1,35.0,29.84,NW,307,2.0,11.0,36,0.00,,,0.01,weatherlink.com 1.10,2013-03-08 21:35:00,
2013-03-08 13:50:00,62.4,36.0,29.84,SW,229,3.0,11.0,37,0.00,,,0.01,weatherlink.com 1.10,2013-03-08 21:50:00,
2013-03-08 14:05:00,63.2,37.0,29.84,NNW,335,4.0,10.0,38,0.00,,,0.01,weatherlink.com 1.10,2013-03-08 22:05:00,
2013-03-08 14:20:00,63.2,41.0,29.84,NW,310,2.0,9.0,45,0.00,,,0.01,weatherlink.com 1.10,2013-03-08 22:20:00,
2013-03-08 14:35:00,63.0,45.0,29.84,WNW,285,0.0,8.0,53,0.00,,,0.01,weatherlink.com 1.10,2013-03-08 22:35:00,
2013-03-08 14:50:00,62.9,45.0,29.85,South,173,3.0,6.0,52,0.00,,,0.01,weatherlink.com 1.10,2013-03-08 22:50:00,
2013-03-08 15:05:00,62.3,46.0,29.85,West,266,2.0,7.0,55,0.00,,,0.01,weatherlink.com 1.10,2013-03-08 23:05:00,
2013-03-08 15:20:00,61.4,46.0,29.85,West,265,3.0,10.0,57,0.00,,,0.01,weatherlink.com 1.10,2013-03-08 23:20:00,
2013-03-08 15:35:00,61.5,47.0,29.85,North,5,3.0,6.0,59,0.00,,,0.01,weatherlink.com 1.10,2013-03-08 23:35:00,
2013-03-08 15:50:00,61.4,46.0,29.85,West,273,0.0,7.0,58,0.00,,,0.01,weatherlink.com 1.10,2013-03-08 23:50:00,
2013-03-08 16:05:00,61.2,45.0,29.85,West,263,5.0,9.0,55,0.00,,,0.01,weatherlink.com 1.10,2013-03-09 00:05:00,
2013-03-08 16:20:00,60.5,45.0,29.86,WSW,243,0.0,5.0,56,0.00,,,0.01,weatherlink.com 1.10,2013-03-09 00:20:00,
2013-03-08 16:35:00,59.5,44.0,29.86,South,175,3.0,7.0,57,0.00,,,0.01,weatherlink.com 1.10,2013-03-09 00:35:00,
2013-03-08 16:50:00,58.2,44.0,29.87,SE,138,2.0,5.0,59,0.00,,,0.01,weatherlink.com 1.10,2013-03-09 00:50:00,
2013-03-08 17:05:00,57.3,43.0,29.87,West,264,6.0,7.0,59,0.00,,,0.01,weatherlink.com 1.10,2013-03-09 01:05:00,
2013-03-08 17:20:00,56.5,42.0,29.89,WNW,294,6.0,12.0,59,0.00,,,0.01,weatherlink.com 1.10,2013-03-09 01:20:00,
2013-03-08 17:35:00,55.7,42.0,29.89,WNW,285,10.0,13.0,60,0.00,,,0.01,weatherlink.com 1.10,2013-03-09 01:35:00,
2013-03-08 17:50:00,55.1,41.0,29.90,NW,305,6.0,10.0,60,0.00,,,0.01,weatherlink.com 1.10,2013-03-09 01:50:00,
2013-03-08 18:05:00,54.3,40.0,29.91,WNW,300,3.0,8.0,60,0.00,,,0.01,weatherlink.com 1.10,2013-03-09 02:05:00,
2013-03-08 18:20:00,53.5,40.0,29.92,WNW,294,3.0,9.0,60,0.00,,,0.01,weatherlink.com 1.10,2013-03-09 02:20:00,
2013-03-08 18:35:00,52.8,39.0,29.93,NNW,327,5.0,11.0,61,0.00,,,0.01,weatherlink.com 1.10,2013-03-09 02:35:00,
2013-03-08 18:50:00,51.9,39.0,29.93,NNW,347,5.0,8.0,62,0.00,,,0.01,weatherlink.com 1.10,2013-03-09 02:50:00,
2013-03-08 19:05:00,51.3,39.0,29.95,NNW,329,5.0,9.0,64,0.00,,,0.01,weatherlink.com 1.10,2013-03-09 03:05:00,
2013-03-08 19:20:00,50.7,39.0,29.95,NW,315,1.0,5.0,65,0.00,,,0.01,weatherlink.com 1.10,2013-03-09 03:20:00,
2013-03-08 19:35:00,49.9,39.0,29.96,NW,320,1.0,6.0,67,0.00,,,0.01,weatherlink.com 1.10,2013-03-09 03:35:00,
2013-03-08 19:50:00,49.3,39.0,29.97,NW,307,6.0,6.0,68,0.00,,,0.01,weatherlink.com 1.10,2013-03-09 03:50:00,
2013-03-08 20:05:00,49.5,39.0,29.97,NW,311,4.0,10.0,68,0.00,,,0.01,weatherlink.com 1.10,2013-03-09 04:05:00,
2013-03-08 20:20:00,49.0,39.0,29.98,NW,320,5.0,7.0,68,0.00,,,0.01,weatherlink.com 1.10,2013-03-09 04:20:00,
2013-03-08 20:35:00,48.7,39.0,29.98,NW,308,3.0,9.0,68,0.00,,,0.01,weatherlink.com 1.10,2013-03-09 04:35:00,
2013-03-08 20:50:00,48.1,38.0,29.99,WNW,290,1.0,6.0,69,0.00,,,0.01,weatherlink.com 1.10,2013-03-09 04:50:00,
2013-03-08 21:05:00,47.5,38.0,30.00,WNW,300,3.0,7.0,70,0.00,,,0.01,weatherlink.com 1.10,2013-03-09 05:05:00,
2013-03-08 21:20:00,47.6,38.0,30.00,NW,309,4.0,7.0,70,0.00,,,0.01,weatherlink.com 1.10,2013-03-09 05:20:00,
2013-03-08 21:35:00,46.7,38.0,30.01,NW,326,0.0,5.0,71,0.00,,,0.01,weatherlink.com 1.10,2013-03-09 05:35:00,
2013-03-08 21:50:00,46.1,38.0,30.01,WNW,296,0.0,5.0,73,0.00,,,0.01,weatherlink.com 1.10,2013-03-09 05:50:00,
2013-03-08 22:06:00,45.2,38.0,30.02,SW,236,0.0,4.0,75,0.00,,,0.01,weatherlink.com 1.10,2013-03-09 06:06:00,
2013-03-08 22:21:00,43.2,36.0,30.03,WNW,294,0.0,4.0,77,0.00,,,0.01,weatherlink.com 1.10,2013-03-09 06:21:00,
2013-03-08 22:36:00,42.2,37.0,30.02,WNW,294,1.0,1.0,81,0.00,,,0.01,weatherlink.com 1.10,2013-03-09 06:36:00,
2013-03-08 22:51:00,41.5,37.0,30.03,WNW,294,0.0,0.0,83,0.00,,,0.01,weatherlink.com 1.10,2013-03-09 06:51:00,
2013-03-08 23:06:00,40.4,36.0,30.03,NW,305,0.0,0.0,83,0.00,,,0.01,weatherlink.com 1.10,2013-03-09 07:06:00,
2013-03-08 23:21:00,39.6,35.0,30.03,NW,305,0.0,1.0,83,0.00,,,0.01,weatherlink.com 1.10,2013-03-09 07:21:00,
2013-03-08 23:36:00,39.0,35.0,30.03,NW,305,0.0,0.0,86,0.00,,,0.01,weatherlink.com 1.10,2013-03-09 07:36:00,
2013-03-08 23:51:00,38.0,35.0,30.03,NW,305,0.0,1.0,87,0.00,,,0.01,weatherlink.com 1.10,2013-03-09 07:51:00,